Location: Dealu Mare
(46.0500°N, 22.8167°E)
Time: 09:51:07
(UTC+00:00)

Cosmos 2082 Rocket - Pass Details

Date: 15 January 2026
Orbit: 832 x 853 km, 71.0° (Epoch: 10 February)

Event Time Altitude Azimuth Distance (km) Brightness Sun altitude
Exits shadow 03:12:45 13° 1° (N) 2,248 4.4 -29.7°
Maximum altitude 03:16:20 23° 46° (NE) 1,740 4.2 -29.0°
Drops below altitude 10° 03:20:45 10° 98° (E) 2,472 5.6 -28.3°
Sets 03:23:44 0° 113° (ESE) 3,407 6.4 -27.8°
